Time,TemperatureF,DewpointF,PressureIn,WindDirection,WindDirectionDegrees,WindSpeedMPH,WindSpeedGustMPH,Humidity,HourlyPrecipIn,Conditions,Clouds,dailyrainin,SoftwareType,DateUTC
2013-06-21 00:07:00,76.1,-31.2,29.75,East,90,0.0,-999.0,1,-99.99,,,0.00,Acu-Link.com,2013-06-21 05:07:00,
2013-06-21 00:22:00,75.7,-31.4,29.76,West,270,0.0,-999.0,1,-99.99,,,0.00,Acu-Link.com,2013-06-21 05:22:00,
2013-06-21 00:37:00,75.6,-31.5,29.76,SE,135,0.0,-999.0,1,-99.99,,,0.00,Acu-Link.com,2013-06-21 05:37:00,
2013-06-21 00:53:00,75.4,-31.6,29.76,SE,135,0.0,-999.0,1,-99.99,,,0.00,Acu-Link.com,2013-06-21 05:53:00,
2013-06-21 01:08:00,76.1,-31.2,29.75,ENE,67,0.0,-999.0,1,-99.99,,,0.00,Acu-Link.com,2013-06-21 06:08:00,
2013-06-21 01:23:00,75.4,-31.6,29.75,ENE,67,0.0,-999.0,1,-99.99,,,0.00,Acu-Link.com,2013-06-21 06:23:00,
2013-06-21 01:39:00,75.0,-31.8,29.75,West,270,0.0,-999.0,1,-99.99,,,0.00,Acu-Link.com,2013-06-21 06:39:00,
2013-06-21 01:54:00,74.5,-32.1,29.75,NNW,337,0.0,-999.0,1,-99.99,,,0.00,Acu-Link.com,2013-06-21 06:54:00,
2013-06-21 02:09:00,74.5,-32.1,29.75,SE,135,0.0,-999.0,1,-99.99,,,0.00,Acu-Link.com,2013-06-21 07:09:00,
2013-06-21 02:25:00,74.7,-32.0,29.74,WSW,247,0.0,-999.0,1,-99.99,,,0.00,Acu-Link.com,2013-06-21 07:25:00,
2013-06-21 02:40:00,74.3,-32.2,29.75,East,90,0.0,-999.0,1,-99.99,,,0.00,Acu-Link.com,2013-06-21 07:40:00,
2013-06-21 02:55:00,74.1,-32.4,29.74,ENE,67,0.0,-999.0,1,-99.99,,,0.00,Acu-Link.com,2013-06-21 07:55:00,
2013-06-21 03:10:00,74.5,-32.1,29.74,ENE,67,0.0,-999.0,1,-99.99,,,0.00,Acu-Link.com,2013-06-21 08:10:00,
2013-06-21 03:25:00,74.3,-32.2,29.74,West,270,0.0,-999.0,1,-99.99,,,0.00,Acu-Link.com,2013-06-21 08:25:00,
2013-06-21 03:40:00,73.8,-32.5,29.74,NNW,337,0.0,-999.0,1,-99.99,,,0.00,Acu-Link.com,2013-06-21 08:40:00,
2013-06-21 03:55:00,73.6,-32.7,29.74,ESE,112,0.0,-999.0,1,-99.99,,,0.00,Acu-Link.com,2013-06-21 08:55:00,
2013-06-21 04:11:00,73.4,-32.8,29.74,NNW,337,0.0,-999.0,1,-99.99,,,0.00,Acu-Link.com,2013-06-21 09:11:00,
2013-06-21 04:26:00,74.1,-32.4,29.74,NE,45,0.0,-999.0,1,-99.99,,,0.00,Acu-Link.com,2013-06-21 09:26:00,
2013-06-21 04:41:00,73.4,-32.8,29.75,NW,315,0.0,-999.0,1,-99.99,,,0.00,Acu-Link.com,2013-06-21 09:41:00,
2013-06-21 04:56:00,73.2,-32.9,29.74,South,180,0.0,-999.0,1,-99.99,,,0.00,Acu-Link.com,2013-06-21 09:56:00,
2013-06-21 05:11:00,72.9,-33.1,29.74,WNW,292,0.0,-999.0,1,-99.99,,,0.00,Acu-Link.com,2013-06-21 10:11:00,
2013-06-21 05:27:00,73.4,-32.8,29.75,SSW,202,0.0,-999.0,1,-99.99,,,0.00,Acu-Link.com,2013-06-21 10:27:00,
2013-06-21 05:42:00,73.8,-32.5,29.75,SSW,202,0.0,-999.0,1,-99.99,,,0.00,Acu-Link.com,2013-06-21 10:42:00,
2013-06-21 05:57:00,73.0,-33.0,29.76,WNW,292,0.0,-999.0,1,-99.99,,,0.00,Acu-Link.com,2013-06-21 10:57:00,
2013-06-21 06:13:00,72.7,-33.2,29.76,WNW,292,0.0,-999.0,1,-99.99,,,0.00,Acu-Link.com,2013-06-21 11:13:00,
2013-06-21 06:28:00,72.5,-33.3,29.76,West,270,0.0,-999.0,1,-99.99,,,0.00,Acu-Link.com,2013-06-21 11:28:00,
2013-06-21 06:43:00,73.6,-32.7,29.76,ESE,112,0.0,-999.0,1,-99.99,,,0.00,Acu-Link.com,2013-06-21 11:43:00,
2013-06-21 06:58:00,75.6,-31.5,29.77,East,90,0.0,-999.0,1,-99.99,,,0.00,Acu-Link.com,2013-06-21 11:58:00,
2013-06-21 07:13:00,78.1,-30.0,29.77,NNE,22,0.0,-999.0,1,-99.99,,,0.00,Acu-Link.com,2013-06-21 12:13:00,
2013-06-21 07:29:00,80.4,-28.6,29.78,North,0,0.0,-999.0,1,-99.99,,,0.00,Acu-Link.com,2013-06-21 12:29:00,
2013-06-21 07:44:00,82.0,-27.7,29.78,ESE,112,3.2,-999.0,1,-99.99,,,0.00,Acu-Link.com,2013-06-21 12:44:00,
2013-06-21 07:59:00,83.7,-26.6,29.78,ENE,67,2.7,-999.0,1,-99.99,,,0.00,Acu-Link.com,2013-06-21 12:59:00,
2013-06-21 08:14:00,85.6,-25.5,29.79,North,0,2.2,-999.0,1,-99.99,,,0.00,Acu-Link.com,2013-06-21 13:14:00,
2013-06-21 08:30:00,88.7,-23.7,29.78,East,90,3.2,-999.0,1,-99.99,,,0.00,Acu-Link.com,2013-06-21 13:30:00,
2013-06-21 08:45:00,90.1,-22.9,29.79,East,90,3.7,-999.0,1,-99.99,,,0.00,Acu-Link.com,2013-06-21 13:45:00,
2013-06-21 09:00:00,91.6,-22.0,29.79,ESE,112,1.7,-999.0,1,-99.99,,,0.00,Acu-Link.com,2013-06-21 14:00:00,
2013-06-21 09:16:00,93.7,-20.7,29.78,ESE,112,2.7,-999.0,1,-99.99,,,0.00,Acu-Link.com,2013-06-21 14:16:00,
2013-06-21 09:31:00,94.3,-20.4,29.78,West,270,2.7,-999.0,1,-99.99,,,0.00,Acu-Link.com,2013-06-21 14:31:00,
2013-06-21 09:46:00,96.3,-19.2,29.78,ESE,112,0.0,-999.0,1,-99.99,,,0.00,Acu-Link.com,2013-06-21 14:46:00,
2013-06-21 10:01:00,97.0,-18.8,29.78,NE,45,2.7,-999.0,1,-99.99,,,0.00,Acu-Link.com,2013-06-21 15:01:00,
2013-06-21 10:16:00,93.9,-20.6,29.78,East,90,1.7,-999.0,1,-99.99,,,0.00,Acu-Link.com,2013-06-21 15:16:00,
2013-06-21 10:32:00,95.5,-19.7,29.78,NNW,337,2.7,-999.0,1,-99.99,,,0.00,Acu-Link.com,2013-06-21 15:32:00,
2013-06-21 10:47:00,97.3,-18.6,29.78,West,270,2.2,-999.0,1,-99.99,,,0.00,Acu-Link.com,2013-06-21 15:47:00,
2013-06-21 11:02:00,94.3,-20.4,29.79,NW,315,3.2,-999.0,1,-99.99,,,0.00,Acu-Link.com,2013-06-21 16:02:00,
2013-06-21 11:18:00,95.9,-19.5,29.80,SSW,202,2.7,-999.0,1,-99.99,,,0.00,Acu-Link.com,2013-06-21 16:18:00,
2013-06-21 11:33:00,95.9,-19.5,29.80,West,270,4.2,-999.0,1,-99.99,,,0.00,Acu-Link.com,2013-06-21 16:33:00,
2013-06-21 11:48:00,96.6,-19.0,29.79,SW,225,1.1,-999.0,1,-99.99,,,0.00,Acu-Link.com,2013-06-21 16:48:00,
2013-06-21 12:19:00,99.0,-17.6,29.79,West,270,2.2,-999.0,1,-99.99,,,0.00,Acu-Link.com,2013-06-21 17:19:00,
2013-06-21 12:49:00,99.0,-17.6,29.80,NE,45,5.8,-999.0,1,-99.99,,,0.00,Acu-Link.com,2013-06-21 17:49:00,
2013-06-21 13:04:00,100.6,-16.7,29.79,West,270,3.7,-999.0,1,-99.99,,,0.00,Acu-Link.com,2013-06-21 18:04:00,
2013-06-21 13:19:00,100.6,-16.7,29.79,NNW,337,1.1,-999.0,1,-99.99,,,0.00,Acu-Link.com,2013-06-21 18:19:00,
2013-06-21 13:35:00,97.7,-18.4,29.78,NE,45,4.7,-999.0,1,-99.99,,,0.00,Acu-Link.com,2013-06-21 18:35:00,
2013-06-21 13:50:00,100.2,-16.9,29.78,WSW,247,0.0,-999.0,1,-99.99,,,0.00,Acu-Link.com,2013-06-21 18:50:00,
2013-06-21 14:05:00,100.0,-17.1,29.78,West,270,2.7,-999.0,1,-99.99,,,0.00,Acu-Link.com,2013-06-21 19:05:00,
2013-06-21 14:20:00,99.5,-17.3,29.76,NNE,22,3.7,-999.0,1,-99.99,,,0.00,Acu-Link.com,2013-06-21 19:20:00,
2013-06-21 14:35:00,102.6,-15.5,29.76,NW,315,3.2,-999.0,1,-99.99,,,0.00,Acu-Link.com,2013-06-21 19:35:00,
2013-06-21 14:51:00,99.3,-17.5,29.76,West,270,2.7,-999.0,1,-99.99,,,0.00,Acu-Link.com,2013-06-21 19:51:00,
2013-06-21 15:06:00,99.1,-17.6,29.76,South,180,2.7,-999.0,1,-99.99,,,0.00,Acu-Link.com,2013-06-21 20:06:00,
2013-06-21 15:21:00,97.0,-18.8,29.77,ESE,112,1.7,-999.0,1,-99.99,,,0.00,Acu-Link.com,2013-06-21 20:21:00,
2013-06-21 15:36:00,101.3,-16.3,29.77,NW,315,2.7,-999.0,1,-99.99,,,0.00,Acu-Link.com,2013-06-21 20:36:00,
2013-06-21 15:52:00,98.6,-17.9,29.76,NE,45,3.2,-999.0,1,-99.99,,,0.00,Acu-Link.com,2013-06-21 20:52:00,
2013-06-21 16:07:00,97.9,-18.3,29.76,NE,45,5.8,-999.0,1,-99.99,,,0.00,Acu-Link.com,2013-06-21 21:07:00,
2013-06-21 16:22:00,98.4,-18.0,29.76,ESE,112,3.7,-999.0,1,-99.99,,,0.00,Acu-Link.com,2013-06-21 21:22:00,
2013-06-21 16:37:00,95.5,-19.7,29.75,ENE,67,6.3,-999.0,1,-99.99,,,0.00,Acu-Link.com,2013-06-21 21:37:00,
2013-06-21 16:52:00,88.9,-23.6,29.75,ESE,112,5.8,-999.0,1,-99.99,,,0.00,Acu-Link.com,2013-06-21 21:52:00,
2013-06-21 17:07:00,90.5,-22.6,29.75,East,90,5.8,-999.0,1,-99.99,,,0.00,Acu-Link.com,2013-06-21 22:07:00,
2013-06-21 17:23:00,91.8,-21.9,29.75,ESE,112,4.7,-999.0,1,-99.99,,,0.00,Acu-Link.com,2013-06-21 22:23:00,
2013-06-21 17:38:00,92.5,-21.4,29.75,ESE,112,4.7,-999.0,1,-99.99,,,0.00,Acu-Link.com,2013-06-21 22:38:00,
2013-06-21 17:53:00,91.4,-22.1,29.75,ESE,112,5.3,-999.0,1,-99.99,,,0.00,Acu-Link.com,2013-06-21 22:53:00,
2013-06-21 18:08:00,90.9,-22.4,29.75,East,90,5.3,-999.0,1,-99.99,,,0.00,Acu-Link.com,2013-06-21 23:08:00,
2013-06-21 18:23:00,88.7,-23.7,29.74,East,90,4.2,-999.0,1,-99.99,,,0.00,Acu-Link.com,2013-06-21 23:23:00,
2013-06-21 18:39:00,87.6,-24.3,29.74,East,90,0.0,-999.0,1,-99.99,,,0.00,Acu-Link.com,2013-06-21 23:39:00,
2013-06-21 18:54:00,85.1,-25.8,29.75,South,180,3.2,-999.0,1,-99.99,,,0.00,Acu-Link.com,2013-06-21 23:54:00,
2013-06-21 19:09:00,84.0,-26.5,29.76,West,270,3.2,-999.0,1,-99.99,,,0.00,Acu-Link.com,2013-06-22 00:09:00,
2013-06-21 19:24:00,82.9,-27.1,29.76,South,180,6.3,-999.0,1,-99.99,,,0.00,Acu-Link.com,2013-06-22 00:24:00,
2013-06-21 19:39:00,82.0,-27.7,29.76,SW,225,4.2,-999.0,1,-99.99,,,0.00,Acu-Link.com,2013-06-22 00:39:00,
2013-06-21 19:54:00,80.6,-28.5,29.76,West,270,5.8,-999.0,1,-99.99,,,0.00,Acu-Link.com,2013-06-22 00:54:00,
2013-06-21 20:09:00,79.7,-29.0,29.76,WSW,247,6.3,-999.0,1,-99.99,,,0.00,Acu-Link.com,2013-06-22 01:09:00,
2013-06-21 20:25:00,79.2,-29.3,29.75,SW,225,4.7,-999.0,1,-99.99,,,0.00,Acu-Link.com,2013-06-22 01:25:00,
2013-06-21 20:40:00,78.6,-29.7,29.74,West,270,4.2,-999.0,1,-99.99,,,0.00,Acu-Link.com,2013-06-22 01:40:00,
2013-06-21 20:55:00,78.4,-29.8,29.73,SW,225,3.7,-999.0,1,-99.99,,,0.00,Acu-Link.com,2013-06-22 01:55:00,
2013-06-21 21:10:00,78.3,-29.9,29.74,West,270,0.0,-999.0,1,-99.99,,,0.00,Acu-Link.com,2013-06-22 02:10:00,
2013-06-21 21:26:00,77.9,-30.1,29.74,NNW,337,0.0,-999.0,1,-99.99,,,0.00,Acu-Link.com,2013-06-22 02:26:00,
2013-06-21 21:41:00,78.4,-29.8,29.74,WSW,247,0.0,-999.0,1,-99.99,,,0.00,Acu-Link.com,2013-06-22 02:41:00,
2013-06-21 21:56:00,77.4,-30.4,29.74,West,270,1.7,-999.0,1,-99.99,,,0.00,Acu-Link.com,2013-06-22 02:56:00,
2013-06-21 22:11:00,77.2,-30.5,29.74,West,270,0.0,-999.0,1,-99.99,,,0.00,Acu-Link.com,2013-06-22 03:11:00,
2013-06-21 22:27:00,77.4,-30.4,29.75,SSW,202,0.0,-999.0,1,-99.99,,,0.00,Acu-Link.com,2013-06-22 03:27:00,
2013-06-21 22:42:00,77.0,-30.6,29.74,ESE,112,0.0,-999.0,1,-99.99,,,0.00,Acu-Link.com,2013-06-22 03:42:00,
2013-06-21 22:57:00,76.3,-31.0,29.74,East,90,2.7,-999.0,1,-99.99,,,0.00,Acu-Link.com,2013-06-22 03:57:00,
2013-06-21 23:12:00,76.3,-31.0,29.75,WSW,247,0.0,-999.0,1,-99.99,,,0.00,Acu-Link.com,2013-06-22 04:12:00,
2013-06-21 23:28:00,76.1,-31.2,29.74,ENE,67,0.0,-999.0,1,-99.99,,,0.00,Acu-Link.com,2013-06-22 04:28:00,
2013-06-21 23:43:00,76.1,-31.2,29.74,West,270,0.0,-999.0,1,-99.99,,,0.00,Acu-Link.com,2013-06-22 04:43:00,
2013-06-21 23:58:00,76.1,-31.2,29.73,SW,225,0.0,-999.0,1,-99.99,,,0.00,Acu-Link.com,2013-06-22 04:58:00,